sat.trackr.live / text

‹ back to catalog

STARLINK-5030

NORAD 55418 · 2023-014AD

PAYLOAD ACTIVE UNKNOWN

§ Identity

Operator
Country
US
Launch date
2023-01-31
Launch site
AFWTR
Launch vehicle
Mass (kg)
RCS (m²)

Purposes: comms

External: N2YO · Heavens-Above · Gunter

§ Orbital elements

Epoch: 2026-09-20T22:00:03.000096Z

Period
95.59 min
Inclination
70.0006°
Eccentricity
0.0002191
Mean motion
15.06449449 rev/d
Perigee alt
545.5 km
Apogee alt
548.6 km
Semi-major
6,925.2 km
B*
5.5330e-3
RAAN
312.1348°
Arg perigee
215.8881°
Mean anomaly
282.5883°
Rev number
576

§ Raw data

STARLINK-50301 55418U 23014AD  26263.91670139  .00082654  00000+0  55330-2 0  99902 55418  70.0006 312.1348 0002191 215.8881 282.5883 15.06449449  5766

JSON: /api/v1/satellites/55418 · /tle

For live sub-satellite position, see the globe view (requires WebGL).

§ Visibility from observer

Set your observer location to see the next 7 days of passes ≥ 10°. The values pass through the URL so the page stays shareable.

No JS? Fill the form by hand. The geolocation button needs JavaScript.